sat.trackr.live / text

‹ back to catalog

STARLINK-36820

NORAD 67966 · 2026-038F

PAYLOAD ACTIVE UNKNOWN

§ Identity

Operator
Country
US
Launch date
2026-02-25
Launch site
AFWTR
Launch vehicle
Mass (kg)
RCS (m²)

Purposes: comms

External: N2YO · Heavens-Above · Gunter

§ Orbital elements

Epoch: 2026-09-19T14:28:29.740800Z

Period
93.91 min
Inclination
97.2847°
Eccentricity
0.0001223
Mean motion
15.33431061 rev/d
Perigee alt
464.7 km
Apogee alt
466.4 km
Semi-major
6,843.7 km
B*
1.7965e-4
RAAN
270.9222°
Arg perigee
98.2134°
Mean anomaly
261.9248°
Rev number
3,295

§ Raw data

STARLINK-368201 67966U 26038F   26262.60312200  .00005727  00000+0  17965-3 0  99962 67966  97.2847 270.9222 0001223  98.2134 261.9248 15.33431061 32950

JSON: /api/v1/satellites/67966 · /tle

For live sub-satellite position, see the globe view (requires WebGL).

§ Visibility from observer

Set your observer location to see the next 7 days of passes ≥ 10°. The values pass through the URL so the page stays shareable.

No JS? Fill the form by hand. The geolocation button needs JavaScript.